Location: Marcé
(47.5801°N, 0.3280°W)
Time: 07:55:57
(UTC+01:00)

Vanguard 1 - Pass Details

Date: 03 December 2021
Orbit: 652 x 3830 km, 34.2° (Epoch: 16 January)

Event Time Altitude Azimuth Distance (km) Brightness Sun altitude
Rises 23:06:51 0° 205° (SSW) 6,879 14.3 -57.1°
Enters shadow 23:09:09 - 201° (SSW) 6,565 14.1 -57.4°
Exits shadow 23:50:45 - 84° (E) 7,044 14.3 -61.9°
Sets 23:52:46 0° 81° (E) 7,330 14.4 -62.1°
